TimeCDT,TemperatureF,Dew PointF,Humidity,Sea Level PressureIn,VisibilityMPH,Wind Direction,Wind SpeedMPH,Gust SpeedMPH,PrecipitationIn,Events,Conditions,WindDirDegrees,DateUTC
12:15 AM,77.4,76.1,96,29.94,10.0,East,6.9,-,N/A,,Clear,80,2013-10-05 05:15:00
12:35 AM,77.5,76.1,95,29.94,10.0,East,4.6,-,N/A,,Scattered Clouds,90,2013-10-05 05:35:00
12:55 AM,78.1,76.3,94,29.94,10.0,East,5.8,-,N/A,,Mostly Cloudy,100,2013-10-05 05:55:00
1:15 AM,77.9,76.1,94,29.93,10.0,East,6.9,-,N/A,,Scattered Clouds,90,2013-10-05 06:15:00
1:35 AM,77.2,75.7,95,29.93,10.0,East,5.8,-,N/A,,Clear,80,2013-10-05 06:35:00
1:55 AM,77.0,75.7,96,29.93,10.0,East,5.8,-,N/A,,Clear,90,2013-10-05 06:55:00
2:15 AM,77.2,76.1,96,29.93,10.0,East,5.8,-,N/A,Rain,Light Rain,90,2013-10-05 07:15:00
2:35 AM,77.4,76.1,96,29.92,10.0,East,6.9,-,N/A,,Overcast,80,2013-10-05 07:35:00
2:55 AM,77.2,75.7,95,29.93,10.0,East,8.1,-,N/A,,Overcast,80,2013-10-05 07:55:00
3:15 AM,77.0,75.4,95,29.92,10.0,ENE,4.6,-,N/A,,Scattered Clouds,70,2013-10-05 08:15:00
3:35 AM,76.6,75.2,95,29.92,10.0,ENE,6.9,-,N/A,,Mostly Cloudy,70,2013-10-05 08:35:00
3:55 AM,76.5,75.2,96,29.92,10.0,ENE,4.6,-,N/A,,Overcast,60,2013-10-05 08:55:00
4:15 AM,76.1,74.8,96,29.92,10.0,ENE,4.6,-,N/A,,Scattered Clouds,60,2013-10-05 09:15:00
4:35 AM,76.1,74.8,96,29.93,10.0,ENE,4.6,-,N/A,,Clear,60,2013-10-05 09:35:00
4:55 AM,75.7,74.7,96,29.93,10.0,ENE,5.8,-,N/A,,Clear,60,2013-10-05 09:55:00
5:15 AM,75.7,74.7,96,29.93,10.0,ENE,5.8,-,N/A,,Clear,60,2013-10-05 10:15:00
5:35 AM,75.7,74.7,96,29.93,10.0,ENE,5.8,-,N/A,,Clear,60,2013-10-05 10:35:00
5:55 AM,75.7,74.7,96,29.94,10.0,ENE,4.6,-,N/A,,Clear,60,2013-10-05 10:55:00
6:15 AM,75.7,74.5,96,29.94,10.0,ENE,4.6,-,N/A,,Scattered Clouds,60,2013-10-05 11:15:00
6:35 AM,75.7,74.5,96,29.94,10.0,ENE,6.9,-,N/A,,Scattered Clouds,60,2013-10-05 11:35:00
6:55 AM,75.7,74.3,95,29.94,10.0,ENE,8.1,-,N/A,,Clear,60,2013-10-05 11:55:00
7:15 AM,75.7,74.3,95,29.95,10.0,ENE,5.8,-,N/A,,Scattered Clouds,60,2013-10-05 12:15:00
7:35 AM,76.1,74.5,95,29.95,10.0,NE,5.8,-,N/A,,Mostly Cloudy,50,2013-10-05 12:35:00
7:55 AM,76.3,74.5,94,29.95,10.0,ENE,8.1,-,N/A,,Scattered Clouds,60,2013-10-05 12:55:00
8:15 AM,77.2,75.2,94,29.95,10.0,ENE,8.1,-,N/A,,Scattered Clouds,70,2013-10-05 13:15:00
8:35 AM,78.1,75.2,91,29.95,10.0,ENE,8.1,-,N/A,,Clear,60,2013-10-05 13:35:00
8:55 AM,79.0,75.6,89,29.96,10.0,ENE,6.9,-,N/A,,Scattered Clouds,60,2013-10-05 13:55:00
9:15 AM,80.6,76.1,86,29.96,10.0,East,9.2,-,N/A,,Mostly Cloudy,80,2013-10-05 14:15:00
9:35 AM,81.0,76.3,86,29.96,10.0,ENE,8.1,-,N/A,,Scattered Clouds,70,2013-10-05 14:35:00
9:55 AM,82.2,75.7,81,29.96,10.0,ENE,6.9,-,N/A,,Scattered Clouds,70,2013-10-05 14:55:00
10:15 AM,83.7,75.7,77,29.96,10.0,East,8.1,-,N/A,,Overcast,90,2013-10-05 15:15:00
10:35 AM,84.4,75.2,74,29.96,10.0,East,8.1,-,N/A,,Scattered Clouds,80,2013-10-05 15:35:00
10:55 AM,85.5,75.7,73,29.95,10.0,East,8.1,-,N/A,,Scattered Clouds,90,2013-10-05 15:55:00
11:15 AM,85.8,75.9,72,29.95,10.0,East,8.1,-,N/A,,Scattered Clouds,80,2013-10-05 16:15:00
11:35 AM,86.0,75.4,70,29.94,10.0,East,4.6,-,N/A,,Scattered Clouds,80,2013-10-05 16:35:00
11:55 AM,87.6,75.7,68,29.94,10.0,East,6.9,-,N/A,,Scattered Clouds,80,2013-10-05 16:55:00
12:15 PM,87.3,75.6,68,29.93,10.0,ENE,6.9,-,N/A,,Scattered Clouds,70,2013-10-05 17:15:00
12:35 PM,88.5,75.2,65,29.93,10.0,East,8.1,-,N/A,,Scattered Clouds,100,2013-10-05 17:35:00
12:55 PM,87.3,73.9,64,29.93,10.0,East,6.9,-,N/A,,Scattered Clouds,80,2013-10-05 17:55:00
1:15 PM,88.2,75.0,65,29.93,10.0,ENE,4.6,-,N/A,,Scattered Clouds,70,2013-10-05 18:15:00
1:35 PM,87.3,74.5,66,29.92,10.0,East,6.9,-,N/A,,Mostly Cloudy,80,2013-10-05 18:35:00
1:55 PM,90.1,74.3,59,29.90,10.0,SE,4.6,-,N/A,,Mostly Cloudy,130,2013-10-05 18:55:00
2:15 PM,87.8,74.7,65,29.89,10.0,ENE,3.5,-,N/A,,Overcast,70,2013-10-05 19:15:00
2:35 PM,91.0,73.4,56,29.88,10.0,NNE,3.5,-,N/A,,Scattered Clouds,30,2013-10-05 19:35:00
2:55 PM,89.4,73.8,60,29.88,7.0,East,3.5,-,N/A,,Scattered Clouds,90,2013-10-05 19:55:00
3:15 PM,90.9,73.2,56,29.87,10.0,Calm,Calm,-,N/A,,Scattered Clouds,0,2013-10-05 20:15:00
3:35 PM,90.7,73.4,57,29.86,10.0,ENE,4.6,-,N/A,,Mostly Cloudy,60,2013-10-05 20:35:00
3:55 PM,85.6,75.9,73,29.87,10.0,ESE,9.2,18.4,N/A,,Mostly Cloudy,120,2013-10-05 20:55:00
4:15 PM,84.6,75.9,75,29.86,7.0,SE,12.7,-,N/A,,Scattered Clouds,140,2013-10-05 21:15:00
4:35 PM,86.0,76.5,73,29.86,10.0,SE,12.7,-,N/A,,Mostly Cloudy,140,2013-10-05 21:35:00
4:55 PM,84.4,76.6,77,29.87,7.0,East,8.1,-,N/A,Rain,Light Rain,90,2013-10-05 21:55:00
5:15 PM,82.4,79.0,89,29.86,7.0,Calm,Calm,-,0.03,Rain,Light Rain,0,2013-10-05 22:15:00
5:35 PM,82.6,78.8,88,29.86,7.0,East,3.5,-,0.03,,Overcast,100,2013-10-05 22:35:00
5:55 PM,81.9,75.9,82,29.87,7.0,East,6.9,-,0.03,,Mostly Cloudy,90,2013-10-05 22:55:00
6:15 PM,81.7,75.2,81,29.87,7.0,ESE,10.4,-,N/A,,Mostly Cloudy,110,2013-10-05 23:15:00
6:35 PM,80.6,75.6,85,29.88,10.0,East,5.8,-,N/A,,Mostly Cloudy,90,2013-10-05 23:35:00
6:55 PM,80.4,75.2,84,29.88,10.0,ESE,6.9,-,N/A,,Scattered Clouds,110,2013-10-05 23:55:00
7:15 PM,79.7,75.2,86,29.88,10.0,East,4.6,-,N/A,,Clear,90,2013-10-06 00:15:00
7:35 PM,78.8,76.1,91,29.89,10.0,Calm,Calm,-,N/A,,Clear,0,2013-10-06 00:35:00
7:55 PM,78.3,76.1,93,29.89,10.0,ENE,3.5,-,N/A,,Clear,70,2013-10-06 00:55:00
8:15 PM,78.3,76.5,94,29.89,10.0,East,5.8,-,N/A,,Clear,90,2013-10-06 01:15:00
8:35 PM,78.8,76.5,92,29.90,10.0,Calm,Calm,-,N/A,,Clear,0,2013-10-06 01:35:00
8:55 PM,78.3,76.3,94,29.91,10.0,ESE,3.5,-,N/A,,Clear,110,2013-10-06 01:55:00
9:15 PM,78.3,76.1,93,29.91,10.0,NE,3.5,-,N/A,,Clear,50,2013-10-06 02:15:00
9:35 PM,77.5,76.1,95,29.91,10.0,Calm,Calm,-,N/A,,Clear,0,2013-10-06 02:35:00
9:55 PM,77.2,76.1,96,29.91,10.0,Calm,Calm,-,N/A,,Scattered Clouds,0,2013-10-06 02:55:00
10:15 PM,77.2,76.1,96,29.91,10.0,Calm,Calm,-,N/A,,Scattered Clouds,0,2013-10-06 03:15:00
10:35 PM,77.4,76.1,96,29.91,10.0,East,3.5,-,N/A,,Scattered Clouds,90,2013-10-06 03:35:00
10:55 PM,77.4,76.1,96,29.92,10.0,Calm,Calm,-,N/A,,Scattered Clouds,0,2013-10-06 03:55:00
11:15 PM,77.2,76.1,96,29.92,10.0,NE,3.5,-,N/A,,Scattered Clouds,40,2013-10-06 04:15:00
11:35 PM,77.2,76.1,96,29.93,10.0,Calm,Calm,-,N/A,,Mostly Cloudy,0,2013-10-06 04:35:00
11:55 PM,77.2,76.1,96,29.92,10.0,Calm,Calm,-,N/A,,Scattered Clouds,0,2013-10-06 04:55:00